Viroqua, WI

11:01 AM CDT on March 25, 2017 (GMT -0500)
Viroqua

Weather History for KY51 - September, 2013

Change the Weather History Date:

Sunday, September 8, 2013

  Actual Average (KCMY) Record (KCMY)
Temperature  
Mean Temperature 66 °F -  
Max Temperature 70 °F 78 °F 96 °F (1978)
Min Temperature 61 °F 50 °F 36 °F (1968)
Cooling Degree Days 2    
Growing Degree Days 16 (Base 50)    
Moisture  
Dew Point 62 °F    
Average Humidity 84    
Maximum Humidity 96    
Minimum Humidity 75    
Precipitation  
Precipitation 0.00 in - - ()
Sea Level Pressure  
Sea Level Pressure 30.02 in    
Wind  
Wind Speed 12 mph (East)    
Max Wind Speed 17 mph    
Max Gust Speed 24 mph    
Visibility 10 miles    
Events      
Averages and records for this station are not official NWS values.
T = Trace of Precipitation, MM = Missing Value Source: NWS Daily Summary

Daily Weather History Graph

Daily Weather History Graph

Search for Another Location

Airport or City:

Trip Planner

Search our weather history database for the weather conditions in past years. The results will help you decide how hot, cold, wet, or windy it might be!

Date:

Astronomy

Sep. 08, 2013 Rise Set
Actual Time 6:35 AM CDT 7:26 PM CDT
Civil Twilight 6:06 AM CDT 7:55 PM CDT
Nautical Twilight 5:31 AM CDT 8:29 PM CDT
Astronomical Twilight 4:55 AM CDT 9:05 PM CDT
Moon 10:01 AM CDT (9/8) 8:53 PM CDT (9/8)
Length of Visible Light 13h 48m
Length of Day
12h 50m
Waxing Crescent, 11% of the Moon is Illuminated
Sep 8
Waxing Crescent
Sep 12
First Quarter
Sep 19
Full
Sep 26
Last Quarter
Oct 4
New

Hourly Weather History & Observations

Time (CDT) Temp. Dew Point Humidity Pressure Visibility Wind Dir Wind Speed Gust Speed Precip Events Conditions
12:15 AM 72.9 °F 65.1 °F 77% 29.99 in 10.0 mi ENE 16.1 mph 21.9 mph N/A   Clear
12:35 AM 71.6 °F 64.4 °F 78% 30.00 in 10.0 mi ENE 13.8 mph 18.4 mph N/A   Clear
12:55 AM 70.7 °F 64.2 °F 80% 30.01 in 10.0 mi East 13.8 mph 19.6 mph N/A   Clear
1:15 AM 69.8 °F 64.8 °F 84% 30.01 in 10.0 mi East 16.1 mph 23.0 mph N/A   Clear
1:35 AM 69.8 °F 65.3 °F 86% 30.02 in 10.0 mi East 12.7 mph 21.9 mph N/A   Mostly Cloudy
1:55 AM 70.0 °F 65.5 °F 86% 30.02 in 10.0 mi East 11.5 mph 18.4 mph N/A   Overcast
2:15 AM 70.0 °F 65.8 °F 87% 30.02 in 10.0 mi East 12.7 mph - N/A   Overcast
2:35 AM 70.2 °F 66.2 °F 87% 30.03 in 10.0 mi East 16.1 mph 21.9 mph N/A   Overcast
2:55 AM 70.0 °F 65.3 °F 85% 30.03 in 10.0 mi East 16.1 mph 21.9 mph N/A   Overcast
3:15 AM 69.4 °F 64.6 °F 84% 30.03 in 10.0 mi East 15.0 mph 23.0 mph N/A   Overcast
3:35 AM 68.5 °F 64.0 °F 85% 30.03 in 10.0 mi East 15.0 mph 21.9 mph N/A   Overcast
3:55 AM 68.0 °F 63.5 °F 85% 30.03 in 7.0 mi East 12.7 mph - N/A   Overcast
4:15 AM 66.9 °F 62.6 °F 86% 30.04 in 10.0 mi ENE 15.0 mph 24.2 mph N/A   Overcast
4:35 AM 65.7 °F 61.9 °F 88% 30.03 in 10.0 mi ENE 17.3 mph 23.0 mph N/A   Overcast
4:55 AM 64.9 °F 61.0 °F 87% 30.04 in 10.0 mi ENE 13.8 mph 23.0 mph N/A   Overcast
5:15 AM 64.4 °F 59.7 °F 85% 30.04 in 10.0 mi ENE 11.5 mph - N/A   Overcast
5:35 AM 63.9 °F 59.0 °F 84% 30.05 in 10.0 mi East 12.7 mph 17.3 mph N/A   Overcast
5:55 AM 63.1 °F 58.1 °F 84% 30.05 in 10.0 mi East 11.5 mph 17.3 mph N/A   Scattered Clouds
6:15 AM 62.8 °F 58.1 °F 85% 30.06 in 10.0 mi ENE 10.4 mph - N/A   Scattered Clouds
6:35 AM 62.1 °F 57.4 °F 85% 30.06 in 10.0 mi East 6.9 mph - N/A   Scattered Clouds
6:55 AM 61.9 °F 56.8 °F 84% 30.06 in 10.0 mi East 11.5 mph 17.3 mph N/A   Scattered Clouds
7:15 AM 62.2 °F 57.0 °F 83% 30.05 in 10.0 mi East 10.4 mph - N/A   Overcast
7:35 AM 62.6 °F 57.2 °F 82% 30.06 in 10.0 mi East 12.7 mph - N/A   Overcast
7:55 AM 62.6 °F 57.2 °F 82% 30.06 in 10.0 mi East 10.4 mph 16.1 mph N/A   Overcast
8:15 AM 62.6 °F 57.2 °F 82% 30.06 in 10.0 mi East 13.8 mph 17.3 mph N/A   Overcast
8:35 AM 63.0 °F 57.9 °F 84% 30.06 in 10.0 mi East 12.7 mph 16.1 mph N/A   Overcast
8:55 AM 63.0 °F 57.6 °F 82% 30.07 in 10.0 mi East 10.4 mph - N/A   Overcast
9:15 AM 63.3 °F 58.1 °F 83% 30.07 in 10.0 mi East 9.2 mph - N/A   Overcast
9:35 AM 64.4 °F 58.5 °F 81% 30.07 in 10.0 mi East 11.5 mph - N/A   Overcast
9:55 AM 64.9 °F 58.6 °F 80% 30.08 in 10.0 mi East 6.9 mph - N/A   Overcast
10:15 AM 65.7 °F 59.0 °F 79% 30.08 in 10.0 mi East 9.2 mph - N/A   Overcast
10:35 AM 65.5 °F 59.2 °F 80% 30.09 in 10.0 mi East 9.2 mph - N/A   Overcast
10:55 AM 65.5 °F 59.2 °F 80% 30.10 in 10.0 mi East 10.4 mph - N/A   Overcast
11:15 AM 65.3 °F 59.2 °F 81% 30.09 in 10.0 mi East 11.5 mph - N/A   Overcast
11:35 AM 65.7 °F 59.7 °F 81% 30.09 in 10.0 mi ESE 10.4 mph - N/A   Overcast
11:55 AM 66.4 °F 60.3 °F 81% 30.09 in 10.0 mi East 9.2 mph - N/A   Overcast
12:15 PM 67.1 °F 60.6 °F 80% 30.08 in 10.0 mi East 11.5 mph - N/A   Overcast
12:35 PM 67.1 °F 60.6 °F 80% 30.08 in 10.0 mi East 10.4 mph - N/A   Overcast
12:55 PM 67.5 °F 60.8 °F 79% 30.07 in 10.0 mi East 9.2 mph - N/A   Overcast
1:15 PM 68.4 °F 61.2 °F 78% 30.06 in 10.0 mi East 9.2 mph - N/A   Overcast
1:35 PM 69.1 °F 61.5 °F 77% 30.05 in 10.0 mi ESE 10.4 mph - N/A   Overcast
1:55 PM 69.8 °F 61.7 °F 75% 30.05 in 10.0 mi ESE 9.2 mph - N/A   Overcast
2:15 PM 69.3 °F 61.9 °F 77% 30.04 in 10.0 mi ESE 10.4 mph - N/A   Overcast
2:35 PM 70.2 °F 62.2 °F 76% 30.03 in 10.0 mi East 11.5 mph - N/A   Overcast
2:55 PM 70.2 °F 61.9 °F 75% 30.03 in 10.0 mi ESE 12.7 mph 17.3 mph N/A   Overcast
3:15 PM 70.0 °F 62.1 °F 76% 30.02 in 10.0 mi East 10.4 mph 17.3 mph N/A   Overcast
3:35 PM 69.8 °F 62.2 °F 77% 30.02 in 10.0 mi East 9.2 mph - N/A   Overcast
3:55 PM 70.0 °F 62.6 °F 77% 30.01 in 10.0 mi ESE 12.7 mph - N/A   Overcast
4:15 PM 69.8 °F 62.4 °F 77% 30.00 in 10.0 mi ESE 11.5 mph - N/A   Overcast
4:35 PM 69.6 °F 62.6 °F 78% 29.98 in 10.0 mi ESE 10.4 mph - N/A   Overcast
4:55 PM 69.1 °F 62.8 °F 80% 29.98 in 10.0 mi ESE 12.7 mph - N/A   Overcast
5:15 PM 68.9 °F 62.8 °F 81% 29.98 in 10.0 mi ESE 12.7 mph 16.1 mph N/A   Overcast
5:35 PM 69.3 °F 63.3 °F 81% 29.97 in 10.0 mi East 10.4 mph - N/A   Overcast
5:55 PM 68.9 °F 63.3 °F 82% 29.97 in 10.0 mi ESE 10.4 mph - N/A   Overcast
6:15 PM 68.5 °F 63.1 °F 83% 29.97 in 10.0 mi ESE 9.2 mph - N/A   Overcast
6:35 PM 68.4 °F 63.5 °F 84% 29.97 in 10.0 mi SE 9.2 mph - N/A   Overcast
6:55 PM 68.4 °F 63.5 °F 84% 29.97 in 10.0 mi ESE 6.9 mph - N/A   Overcast
7:15 PM 68.0 °F 63.5 °F 85% 29.97 in 10.0 mi ESE 4.6 mph - N/A   Overcast
7:35 PM 68.0 °F 63.7 °F 86% 29.97 in 10.0 mi East 4.6 mph - N/A   Overcast
7:55 PM 68.0 °F 63.7 °F 86% 29.98 in 10.0 mi East 5.8 mph - N/A   Overcast
8:15 PM 67.8 °F 63.9 °F 87% 29.98 in 10.0 mi East 6.9 mph - N/A   Overcast
8:35 PM 67.5 °F 64.0 °F 89% 29.98 in 10.0 mi ESE 6.9 mph - N/A   Overcast
8:55 PM 67.1 °F 64.4 °F 91% 29.98 in 10.0 mi East 6.9 mph - N/A   Mostly Cloudy
9:15 PM 67.1 °F 65.5 °F 95% 29.98 in 10.0 mi East 5.8 mph - N/A   Overcast
9:35 PM 67.3 °F 65.8 °F 95% 29.98 in 10.0 mi East 8.1 mph - N/A   Overcast
9:55 PM 67.1 °F 65.8 °F 96% 29.97 in 10.0 mi East 8.1 mph - N/A   Mostly Cloudy
10:15 PM 67.1 °F 66.0 °F 96% 29.97 in 7.0 mi ESE 9.2 mph - N/A   Overcast
10:35 PM 67.1 °F 65.8 °F 96% 29.97 in 7.0 mi ESE 9.2 mph - N/A   Overcast
10:55 PM 67.1 °F 65.8 °F 96% 29.97 in 7.0 mi ESE 9.2 mph - N/A   Overcast
11:15 PM 67.1 °F 65.7 °F 95% 29.96 in 7.0 mi ESE 8.1 mph - N/A   Overcast
11:35 PM 67.1 °F 65.7 °F 95% 29.96 in 7.0 mi ESE 9.2 mph - N/A   Overcast
11:55 PM 67.1 °F 65.5 °F 95% 29.95 in 7.0 mi ESE 9.2 mph - N/A   Overcast